{"data":{"norad_id":47376,"intl_designator":"2021-005AD","name":"STARLINK-2096","alt_names":[],"object_type":"PAYLOAD","status":"ACTIVE","operator":null,"country":"US","launch_date":"2021-01-20","launch_site_code":"AFETR","launch_vehicle":null,"mission":null,"orbit_class":"UNKNOWN","rcs_meters":null,"size_class":null,"mass_kg":null,"dimensions":null,"purposes":["comms"],"wikipedia_slug":null,"has_3d_model":false,"image_url":null,"decayed_at":null,"tle_current":{"epoch":"2026-05-25T01:21:12.958272Z","epoch_age_seconds":70137,"freshness":"FRESH","line1":"1 47376U 21005AD  26145.05639998  .00011170  00000+0  37088-3 0  9990","line2":"2 47376  53.1607  67.3487 0001118  94.2021 265.9108 15.31724992294723","mean_motion":15.31724992,"eccentricity":0.0001118,"inclination_deg":53.1607,"raan_deg":67.3487,"arg_perigee_deg":94.2021,"mean_anomaly_deg":265.9108,"bstar":0.00037088,"rev_number":29472,"period_min":94.011654018896,"perigee_km":469.899800268,"apogee_km":471.43119250619,"semimajor_km":6848.8024963871,"source":"CELESTRAK","updated_at":"2026-05-25T13:38:16.527608Z"}}}